When you browse on this site, cookies collect data to enhance your experience and personalize the content and advertising you see.
Visit our Privacy Policy to learn more. By continuing to use the site, you agree to this use of cookies and data.
  • In Hungary
  • List of Countries
  • For 7 days
  • Water Temperature
  • Satellite Maps
  • Weather Map
  • News
  • Weather Widgets
  • user-avatar
    Login

    Hourly Weather Tasmachi

    Today, 15 December, Saturday

    Time Temperature Precipitation Wind Pressure Humidity
    00:00 +8°C° 0 mm 2 mps 729 mmHg 36%
    01:00 +8°C° 0 mm 2 mps 729 mmHg 37%
    02:00 +9°C° 0 mm 1 mps 729 mmHg 38%
    03:00 +8°C° 0 mm 1 mps 729 mmHg 40%
    04:00 +7°C° 0 mm 2 mps 728 mmHg 36%
    05:00 +7°C° 0 mm 2 mps 728 mmHg 36%
    06:00 +7°C° 0 mm 2 mps 729 mmHg 36%
    07:00 +7°C° 0 mm 2 mps 729 mmHg 35%
    08:00 +9°C° 0 mm 2 mps 729 mmHg 32%
    09:00 +10°C° 0 mm 2 mps 728 mmHg 28%
    10:00 +13°C° 0 mm 3 mps 728 mmHg 23%
    11:00 +13°C° 0 mm 3 mps 728 mmHg 23%
    12:00 +14°C° 0 mm 3 mps 728 mmHg 23%
    13:00 +14°C° 0 mm 3 mps 727 mmHg 22%
    14:00 +13°C° 0 mm 3 mps 727 mmHg 28%
    15:00 +12°C° 0 mm 3 mps 727 mmHg 33%
    16:00 +11°C° 0 mm 3 mps 727 mmHg 38%
    17:00 +10°C° 0 mm 3 mps 728 mmHg 44%
    18:00 +9°C° 0 mm 3 mps 728 mmHg 49%
    19:00 +8°C° 0 mm 3 mps 729 mmHg 55%
    20:00 +7°C° 0 mm 3 mps 729 mmHg 59%
    21:00 +7°C° 0 mm 3 mps 729 mmHg 63%
    22:00 +5°C° 0 mm 4 mps 730 mmHg 67%
    23:00 +5°C° 0 mm 4 mps 730 mmHg 72%

    Tomorrow, 16 December, Sunday

    Time Temperature Precipitation Wind Pressure Humidity
    00:00 +4°C° 0 mm 4 mps 731 mmHg 78%
    01:00 +3°C° 0 mm 5 mps 731 mmHg 83%
    02:00 +3°C° 0 mm 5 mps 732 mmHg 83%
    03:00 +4°C° 0 mm 4 mps 732 mmHg 83%
    04:00 +3°C° 0 mm 4 mps 733 mmHg 83%
    05:00 +3°C° 0 mm 3 mps 733 mmHg 85%
    06:00 +3°C° 0 mm 2 mps 734 mmHg 87%
    07:00 +4°C° 0 mm 1 mps 734 mmHg 89%
    08:00 +5°C° 0 mm 1 mps 734 mmHg 83%
    09:00 +6°C° 0 mm 1 mps 734 mmHg 76%
    10:00 +7°C° 0 mm 1 mps 735 mmHg 69%
    11:00 +8°C° 0 mm 1 mps 734 mmHg 63%
    12:00 +7°C° 0 mm 0 mps 734 mmHg 58%
    13:00 +8°C° 0 mm 0 mps 733 mmHg 52%
    14:00 +9°C° 0 mm 1 mps 733 mmHg 52%
    15:00 +9°C° 0 mm 1 mps 733 mmHg 53%
    16:00 +9°C° 0 mm 1 mps 733 mmHg 54%
    17:00 +7°C° 0 mm 2 mps 732 mmHg 57%
    18:00 +7°C° 0 mm 3 mps 732 mmHg 60%
    19:00 +5°C° 0 mm 3 mps 732 mmHg 63%
    20:00 +5°C° 0 mm 3 mps 731 mmHg 64%
    21:00 +5°C° 0 mm 3 mps 731 mmHg 65%
    22:00 +5°C° 0 mm 3 mps 730 mmHg 66%
    23:00 +5°C° 0 mm 3 mps 730 mmHg 64%

    Day after tomorrow, 17 December, Monday

    Time Temperature Precipitation Wind Pressure Humidity
    00:00 +5°C° 0 mm 3 mps 730 mmHg 62%
    01:00 +5°C° 0 mm 3 mps 730 mmHg 59%
    02:00 +5°C° 0 mm 3 mps 729 mmHg 57%
    03:00 +6°C° 0 mm 2 mps 729 mmHg 55%
    04:00 +7°C° 0 mm 2 mps 729 mmHg 53%
    05:00 +7°C° 0 mm 2 mps 729 mmHg 51%
    06:00 +7°C° 0 mm 2 mps 729 mmHg 50%
    07:00 +6°C° 0 mm 2 mps 729 mmHg 49%
    08:00 +8°C° 0 mm 2 mps 728 mmHg 44%
    09:00 +10°C° 0 mm 2 mps 728 mmHg 38%
    10:00 +12°C° 0 mm 2 mps 728 mmHg 33%
    11:00 +12°C° 0 mm 3 mps 728 mmHg 31%
    12:00 +13°C° 0 mm 4 mps 728 mmHg 28%
    13:00 +13°C° 0 mm 6 mps 727 mmHg 25%
    14:00 +12°C° 0 mm 5 mps 728 mmHg 29%
    15:00 +12°C° 0 mm 5 mps 728 mmHg 33%
    16:00 +11°C° 0 mm 4 mps 728 mmHg 37%
    17:00 +10°C° 0 mm 4 mps 728 mmHg 42%
    18:00 +10°C° 0 mm 4 mps 728 mmHg 47%
    19:00 +9°C° 0 mm 3 mps 729 mmHg 52%
    20:00 +9°C° 0 mm 3 mps 729 mmHg 55%
    21:00 +8°C° 0 mm 3 mps 728 mmHg 58%
    22:00 +7°C° 0 mm 3 mps 728 mmHg 61%
    23:00 +7°C° 0 mm 3 mps 729 mmHg 63%

    18 December, Tuesday

    Time Temperature Precipitation Wind Pressure Humidity
    00:00 +7°C° 0 mm 3 mps 729 mmHg 64%
    01:00 +5°C° 0 mm 3 mps 729 mmHg 66%
    02:00 +6°C° 0 mm 2 mps 729 mmHg 69%
    03:00 +5°C° 0 mm 2 mps 729 mmHg 72%
    04:00 +5°C° 0 mm 2 mps 729 mmHg 75%
    05:00 +4°C° 0 mm 2 mps 730 mmHg 76%
    06:00 +4°C° 0 mm 2 mps 730 mmHg 77%
    07:00 +5°C° 0 mm 1 mps 730 mmHg 77%
    08:00 +6°C° 0 mm 1 mps 730 mmHg 69%
    09:00 +6°C° 0 mm 1 mps 731 mmHg 60%
    10:00 +7°C° 0 mm 1 mps 731 mmHg 52%
    11:00 +8°C° 0 mm 1 mps 730 mmHg 48%
    12:00 +9°C° 0 mm 1 mps 730 mmHg 43%
    13:00 +10°C° 0 mm 1 mps 729 mmHg 39%
    14:00 +9°C° 0 mm 2 mps 729 mmHg 41%
    15:00 +8°C° 0 mm 2 mps 729 mmHg 43%
    16:00 +8°C° 0 mm 3 mps 728 mmHg 45%
    17:00 +8°C° 0 mm 3 mps 728 mmHg 47%
    18:00 +7°C° 0 mm 3 mps 728 mmHg 49%
    19:00 +6°C° 0 mm 4 mps 728 mmHg 51%
    20:00 +6°C° 0 mm 4 mps 728 mmHg 51%
    21:00 +5°C° 0 mm 4 mps 728 mmHg 52%
    22:00 +5°C° 0 mm 4 mps 727 mmHg 52%
    23:00 +5°C° 0.1 mm 4 mps 727 mmHg 54%

    19 December, Wednesday

    Time Temperature Precipitation Wind Pressure Humidity
    00:00 +5°C° 0.1 mm 4 mps 727 mmHg 55%
    01:00 +5°C° 0.1 mm 4 mps 727 mmHg 56%
    02:00 +5°C° 0 mm 4 mps 726 mmHg 58%
    03:00 +5°C° 0 mm 4 mps 726 mmHg 59%
    04:00 +4°C° 0 mm 4 mps 726 mmHg 60%
    05:00 +4°C° 0.1 mm 4 mps 726 mmHg 62%
    06:00 +4°C° 0.1 mm 4 mps 727 mmHg 63%
    07:00 +4°C° 0.1 mm 4 mps 727 mmHg 64%
    08:00 +5°C° 0.1 mm 3 mps 727 mmHg 63%
    09:00 +5°C° 0.1 mm 3 mps 727 mmHg 62%
    10:00 +7°C° 0.1 mm 3 mps 728 mmHg 60%
    11:00 +7°C° 0.1 mm 3 mps 727 mmHg 59%
    12:00 +8°C° 0.1 mm 2 mps 727 mmHg 58%
    13:00 +8°C° 0.1 mm 2 mps 727 mmHg 57%
    14:00 +8°C° 0.1 mm 2 mps 728 mmHg 60%
    15:00 +8°C° 0.1 mm 1 mps 728 mmHg 63%
    16:00 +8°C° 0.1 mm 1 mps 728 mmHg 66%
    17:00 +7°C° 0.2 mm 2 mps 729 mmHg 69%
    18:00 +6°C° 0.2 mm 2 mps 729 mmHg 72%
    19:00 +6°C° 0.2 mm 2 mps 730 mmHg 75%
    20:00 +5°C° 0.3 mm 2 mps 730 mmHg 77%
    21:00 +4°C° 0.3 mm 3 mps 730 mmHg 80%
    22:00 +4°C° 0.3 mm 3 mps 731 mmHg 82%
    23:00 +4°C° 0.3 mm 3 mps 731 mmHg 82%

    20 December, Thursday

    Time Temperature Precipitation Wind Pressure Humidity
    00:00 +3°C° 0.3 mm 3 mps 731 mmHg 83%
    01:00 +3°C° 0.3 mm 3 mps 731 mmHg 83%
    02:00 +3°C° 0.2 mm 3 mps 731 mmHg 82%
    03:00 +2°C° 0.2 mm 3 mps 731 mmHg 82%
    04:00 +2°C° 0.2 mm 3 mps 731 mmHg 81%
    05:00 +3°C° 0.2 mm 2 mps 732 mmHg 81%
    06:00 +3°C° 0.2 mm 2 mps 732 mmHg 81%
    07:00 +3°C° 0.2 mm 2 mps 732 mmHg 81%
    08:00 +3°C° 0.1 mm 2 mps 732 mmHg 78%
    09:00 +4°C° 0.1 mm 2 mps 732 mmHg 74%
    10:00 +4°C° 0.1 mm 2 mps 733 mmHg 70%
    11:00 +5°C° 0 mm 2 mps 732 mmHg 66%
    12:00 +5°C° 0 mm 2 mps 732 mmHg 62%
    13:00 +6°C° 0 mm 2 mps 731 mmHg 58%
    14:00 +6°C° 0 mm 2 mps 731 mmHg 60%
    15:00 +7°C° 0 mm 1 mps 731 mmHg 61%
    16:00 +6°C° 0 mm 1 mps 731 mmHg 63%
    17:00 +6°C° 0 mm 1 mps 731 mmHg 64%
    18:00 +5°C° 0 mm 1 mps 731 mmHg 66%
    19:00 +5°C° 0 mm 1 mps 731 mmHg 67%
    20:00 +5°C° 0 mm 1 mps 731 mmHg 68%
    21:00 +4°C° 0 mm 2 mps 730 mmHg 69%
    22:00 +3°C° 0 mm 2 mps 730 mmHg 69%
    23:00 +3°C° 0 mm 2 mps 730 mmHg 71%
    Show more